Find Starlink 31886

NORAD ID: 59662 Int'l Des: 2024-084 Owner: SPXS Country: US Constellation: starlink operational
LEOCIRCULAR

当前视图

正在加载3D地球...

About Starlink 31886

Starlink 31886 (NORAD 59662) is a starlink constellation satellite (v2 mini) launched May 6, 2024 by SPXS of US. It operates in LEO, CIRCULAR orbit with a mass of 730.00 kg.

即将过境

Passes for default location (London). Set your location on the main map for personalized predictions.

高度历史

Loading altitude history...

两行轨道根数

1 59662U 24084J 26236.22452068 .00003450 00000-0 13484-3 0 9999
2 59662 43.0028 175.8063 0001519 268.7923 91.2755 15.27574705129992
Epoch: Aug 24, 2026 • Age: 18 hours

当前状态

高度 486.8 km
远地点 / 近地点 N/A
速度 7.63 km/s
星下点 41.24°N, 76.98°W
发射日期 May 6, 2024
运行时间 2.2 years
类型 internet

技术详情

分类 Payload
质量 730.00 kg
干质量 700.00 kg
总质量 730.00 kg
长度 0.30 m
直径 4.10 m
跨度 29.00 m
形状 Box + pan
制造商 SPXS
平台类型 Starlink V2M
阶段状态 In Orbit
所有者/国家 SPXS/US

Most Searched